Location: Narrabri
(30.3170°S, 149.7830°E)
Time: 07:50:15
(UTC+11:00)

N. Korean satellite - Pass Details

Date: 08 October 2017
Orbit: 459 x 517 km, 97.2° (Epoch: 17 October)

Event Time Altitude Azimuth Distance (km) Brightness Sun altitude
Rises 20:40:22 0° 192° (SSW) 2,668 10.8 -20.5°
Reaches altitude 10° 20:43:10 10° 214° (SW) 1,771 10.2 -21.0°
Maximum altitude 20:45:28 16° 251° (WSW) 1,447 10.0 -21.5°
Drops below altitude 10° 20:47:44 10° 288° (WNW) 1,751 10.1 -22.0°
Sets 20:50:29 0° 311° (NW) 2,622 10.7 -22.5°
